Location: Newark
(47.3150°N, 5.1150°E)
Time: 15:11:20
(UTC+00:00)

AO-7 - Pass Details

Date: 20 December 2019
Orbit: 1440 x 1459 km, 101.8° (Epoch: 17 January)

Event Time Altitude Azimuth Distance (km) Brightness Sun altitude
Rises 01:23:24 0° 32° (NNE) 4,567 ? -58.0°
Reaches altitude 10° 01:28:29 10° 58° (ENE) 3,586 ? -57.3°
Maximum altitude 01:32:00 13° 84° (E) 3,345 ? -56.9°
Enters shadow 01:33:20 13° 94° (E) 3,379 ? -56.7°
